Plymouth, MA

1:40 AM EDT on March 23, 2017 (GMT -0400)
Plymouth Municipal

Weather History for KPYM - August, 2014

Change the Weather History Date:

Saturday, August 16, 2014

  Actual Average Record
Temperature  
Mean Temperature 64 °F -  
Max Temperature 75 °F 81 °F 94 °F (1959)
Min Temperature 53 °F 59 °F 43 °F (1983)
Degree Days  
Heating Degree Days 1    
Growing Degree Days 14 (Base 50)    
Moisture  
Dew Point 53 °F    
Average Humidity 65    
Maximum Humidity 86    
Minimum Humidity 46    
Precipitation  
Precipitation 0.00 in - - ()
Sea Level Pressure  
Sea Level Pressure 29.96 in    
Wind  
Wind Speed 7 mph (SW)    
Max Wind Speed 17 mph    
Max Gust Speed 23 mph    
Visibility 10 miles    
Events      
Averages and records for this station are not official NWS values.
T = Trace of Precipitation, MM = Missing Value Source: NWS Daily Summary

Daily Weather History Graph

Daily Weather History Graph

Search for Another Location

Airport or City:

Trip Planner

Search our weather history database for the weather conditions in past years. The results will help you decide how hot, cold, wet, or windy it might be!

Date:

Astronomy

Aug. 16, 2014 Rise Set
Actual Time 5:51 AM EDT 7:41 PM EDT
Civil Twilight 5:22 AM EDT 8:11 PM EDT
Nautical Twilight 4:45 AM EDT 8:47 PM EDT
Astronomical Twilight 4:06 AM EDT 9:26 PM EDT
Moon 11:15 PM EDT (8/16) 12:41 PM EDT (8/16)
Length of Visible Light 14h 49m
Length of Day
13h 49m
Waning Gibbous, 59% of the Moon is Illuminated
Aug 16
Waning Gibbous
Aug 17
Last Quarter
Aug 25
New
Sep 2
First Quarter
Sep 8
Full

Hourly Weather History & Observations

Time (EDT) Temp. Dew Point Humidity Pressure Visibility Wind Dir Wind Speed Gust Speed Precip Events Conditions
1:52 AM 59.0 °F 52.0 °F 78% 29.94 in 10.0 mi SW 4.6 mph - N/A   Scattered Clouds
2:52 AM 57.9 °F 52.0 °F 81% 29.95 in 10.0 mi SW 5.8 mph - N/A   Clear
3:52 AM 57.0 °F 51.1 °F 81% 29.95 in 10.0 mi WSW 5.8 mph - N/A   Clear
4:52 AM 55.0 °F 50.0 °F 83% 29.96 in 10.0 mi Calm Calm - N/A   Clear
5:52 AM 53.1 °F 48.9 °F 86% 29.96 in 10.0 mi Calm Calm - N/A   Clear
6:52 AM 55.9 °F 51.1 °F 84% 29.97 in 10.0 mi Calm Calm - N/A   Clear
7:52 AM 63.0 °F 54.0 °F 72% 29.99 in 10.0 mi SW 6.9 mph - N/A   Clear
8:52 AM 66.9 °F 53.1 °F 61% 29.99 in 10.0 mi WSW 9.2 mph - N/A   Clear
9:52 AM 70.0 °F 52.0 °F 53% 30.00 in 10.0 mi WSW 13.8 mph 23.0 mph N/A   Clear
10:52 AM 73.0 °F 53.1 °F 49% 30.00 in 10.0 mi WSW 13.8 mph - N/A   Clear
11:52 AM 73.9 °F 54.0 °F 50% 29.99 in 10.0 mi SW 11.5 mph 20.7 mph N/A   Clear
12:52 PM 73.9 °F 52.0 °F 46% 29.98 in 10.0 mi SW 13.8 mph - N/A   Partly Cloudy
1:52 PM 73.9 °F 53.1 °F 48% 29.97 in 10.0 mi SSW 13.8 mph - N/A   Scattered Clouds
2:52 PM 73.9 °F 54.0 °F 50% 29.95 in 10.0 mi SSW 11.5 mph 20.7 mph N/A   Mostly Cloudy
3:52 PM 75.0 °F 54.0 °F 48% 29.95 in 10.0 mi SSW 17.3 mph 21.9 mph N/A   Scattered Clouds
4:52 PM 73.9 °F 54.0 °F 50% 29.95 in 10.0 mi SW 13.8 mph - N/A   Clear
5:52 PM 72.0 °F 54.0 °F 53% 29.94 in 10.0 mi SW 13.8 mph - N/A   Clear
6:52 PM 69.1 °F 54.0 °F 58% 29.95 in 10.0 mi SSW 8.1 mph - N/A   Clear
8:52 PM 66.0 °F 55.9 °F 70% 29.96 in 10.0 mi SSW 5.8 mph - N/A   Clear
9:52 PM 64.9 °F 57.0 °F 75% 29.96 in 10.0 mi SSW 3.5 mph - N/A   Clear
10:52 PM 64.0 °F 57.0 °F 78% 29.95 in 10.0 mi Calm Calm - N/A   Clear
11:52 PM 63.0 °F 57.0 °F 81% 29.94 in 10.0 mi Calm Calm - N/A   Clear